Weather History for Klamath Falls, OR

Change the Weather History Date:

Saturday, February 9, 2013

  Actual Average Record
Temperature  
Mean Temperature 29 °F 33 °F  
Max Temperature 41 °F 43 °F 63 °F (1951)
Min Temperature 16 °F 23 °F 10 °F (1989)
Degree Days  
Heating Degree Days 36 32  
Month to date heating degree days 291 293  
Since 1 July heating degree days 4088 4273  
Cooling Degree Days 0 0  
Month to date cooling degree days 0 0  
Year to date cooling degree days 0 0  
Moisture  
Dew Point 20 °F    
Average Humidity 74    
Maximum Humidity 92    
Minimum Humidity 52    
Precipitation  
Precipitation 0.00 in 0.08 in 0.40 in (1959)
Month to date precipitation 0.11 0.60  
Year to date precipitation 0.55 2.45  
Sea Level Pressure  
Sea Level Pressure 30.13 in    
Wind  
Wind Speed 5 mph (WNW)    
Max Wind Speed 14 mph    
Max Gust Speed 15 mph    
Visibility 10 miles    
Events      
T = Trace of Precipitation, MM = Missing Value Source: NWS Daily Summary

Daily Weather History Graph

Daily Weather History Graph

Search for Another Location

Airport:

Trip Planner

Search our weather history database for the weather conditions in past years. The results will help you decide how hot, cold, wet, or windy it might be!

Date:

Astronomy

Feb. 09, 2013 Rise Set
Actual Time 7:10 AM PST 5:32 PM PST
Civil Twilight 6:41 AM PST 6:01 PM PST
Nautical Twilight 6:08 AM PST 6:34 PM PST
Astronomical Twilight 5:35 AM PST 7:07 PM PST
Moon 6:25 AM PST (2/9) 5:21 PM PST (2/9)
Length of Visible Light 11h 20m
Length of Day
10h 21m
Waning Crescent, 0% of the Moon is Illuminated
Feb 9
Waning Crescent
Feb 9
New
Feb 17
First Quarter
Feb 25
Full
Mar 4
Last Quarter

Hourly Weather History & Observations

Time (PST) Temp. Windchill Dew Point Humidity Pressure Visibility Wind Dir Wind Speed Gust Speed Precip Events Conditions
12:53 AM 25.0 °F 15.5 °F 18.0 °F 75% 30.10 in 10.0 mi NW 9.2 mph - N/A   Clear
1:53 AM 23.0 °F 14.7 °F 17.1 °F 78% 30.10 in 10.0 mi NNW 6.9 mph - N/A   Clear
2:53 AM 21.0 °F 12.4 °F 17.1 °F 85% 30.11 in 10.0 mi NW 6.9 mph - N/A   Clear
3:53 AM 21.9 °F 15.7 °F 16.0 °F 78% 30.10 in 10.0 mi NNW 4.6 mph - N/A   Clear
4:53 AM 19.0 °F 12.3 °F 15.1 °F 85% 30.12 in 10.0 mi West 4.6 mph - N/A   Clear
5:53 AM 19.9 °F 14.9 °F 15.1 °F 81% 30.14 in 10.0 mi WNW 3.5 mph - N/A   Clear
6:03 AM 19.4 °F 12.8 °F 15.8 °F 86% 30.06 in 7.0 mi NNW 4.6 mph - N/A   Clear
6:53 AM 18.0 °F - 14.0 °F 84% 30.15 in 10.0 mi Calm Calm - N/A   Partly Cloudy
7:53 AM 18.0 °F - 14.0 °F 84% 30.17 in 10.0 mi Calm Calm - N/A   Scattered Clouds
8:53 AM 23.0 °F - 17.1 °F 78% 30.18 in 10.0 mi Calm Calm - N/A   Scattered Clouds
9:53 AM 28.0 °F 21.7 °F 17.1 °F 63% 30.16 in 10.0 mi NNW 5.8 mph - N/A   Scattered Clouds
10:53 AM 30.0 °F 25.2 °F 16.0 °F 56% 30.16 in 10.0 mi NNW 4.6 mph - N/A   Mostly Cloudy
11:53 AM 32.0 °F 27.5 °F 19.0 °F 59% 30.14 in 10.0 mi SSW 4.6 mph - N/A   Scattered Clouds
12:53 PM 36.0 °F - 21.0 °F 55% 30.12 in 10.0 mi Calm Calm - N/A   Mostly Cloudy
1:53 PM 37.0 °F - 21.0 °F 52% 30.11 in 10.0 mi Calm Calm - N/A   Mostly Cloudy
2:53 PM 39.9 °F 35.8 °F 24.1 °F 53% 30.09 in 10.0 mi SW 5.8 mph - N/A   Overcast
3:53 PM 39.9 °F 36.7 °F 26.1 °F 58% 30.10 in 10.0 mi WSW 4.6 mph - N/A   Overcast
4:53 PM 37.0 °F 29.8 °F 27.0 °F 67% 30.12 in 10.0 mi West 10.4 mph - N/A   Overcast
5:53 PM 35.1 °F 27.9 °F 27.0 °F 72% 30.13 in 10.0 mi WNW 9.2 mph - N/A   Mostly Cloudy
6:53 PM 33.1 °F 24.9 °F 27.0 °F 78% 30.16 in 10.0 mi WNW 10.4 mph - N/A   Mostly Cloudy
7:53 PM 33.1 °F 27.7 °F 26.1 °F 75% 30.16 in 10.0 mi West 5.8 mph - N/A   Clear
8:53 PM 30.0 °F 26.5 °F 26.1 °F 85% 30.17 in 10.0 mi West 3.5 mph - N/A   Clear
9:53 PM 27.0 °F 23.0 °F 24.1 °F 89% 30.16 in 10.0 mi ESE 3.5 mph - N/A   Clear
10:53 PM 27.0 °F 23.0 °F 24.1 °F 89% 30.17 in 10.0 mi NNW 3.5 mph - N/A   Clear
11:53 PM 30.0 °F 21.1 °F 25.0 °F 82% 30.17 in 10.0 mi NW 10.4 mph - N/A   Clear